Regional Weather Roundup
Issued by NWS

Home | Current Version | Previous Version | Graphics & Text | Print | Product List | Glossary On
Versions: 1 2 3 4 5 6 7 8 9 10 11 12 13 14 15 16 17 18 19 20 21 22 23 24 25 26 27 28 29 30 31 32 33 34 35 36 37 38 39 40 41 42 43 44 45 46 47 48 49 50
000
ASUS43 KFSD 210910
RWRSD

WEATHER ROUNDUP FOR SOUTH DAKOTA
NATIONAL WEATHER SERVICE SIOUX FALLS SD
300 AM CST TUE FEB 21 2017

NOTE: "FAIR" INDICATES FEW OR NO CLOUDS BELOW 12,000 FEET WITH NO
SIGNIFICANT WEATHER AND/OR OBSTRUCTIONS TO VISIBILITY.


SDZ001>005-009-010-012>017-211000-
NORTHWEST AND NORTH CENTRAL SOUTH DAKOTA

CITY           SKY/WX    TMP DP  RH WIND       PRES   REMARKS
BUFFALO          N/A     46  32  58 SW17      29.66R
FAITH            N/A     43  32  65 SW12      29.72R
MOBRIDGE       CLOUDY    39  30  70 SE12      29.68S
$$

SDZ012>016-024>037-041>051-057-063-072>074-211000-
SOUTHWEST AND SOUTH CENTRAL SOUTH DAKOTA

CITY           SKY/WX    TMP DP  RH WIND       PRES   REMARKS
RAPID CTY ARPT CLEAR     54  28  36 S13       29.79R
PIERRE         CLEAR     35  27  72 CALM      29.75R
CUSTER         CLEAR     43  28  55 W18G31    29.86R
ELLSWORTH AFB  CLEAR     55  30  37 W15G24    29.76R
PHILIP         CLEAR     54  32  43 SW22      29.76R
PINE RIDGE     CLEAR     37  27  67 CALM      29.88R
SPEARFISH      FAIR      52  30  43 SW30G45   29.77F
WINNER         FAIR      46  28  49 S22       29.80F
$$

SDZ004>011-016>023-039-040-211000-
NORTHEAST SOUTH DAKOTA

CITY           SKY/WX    TMP DP  RH WIND       PRES   REMARKS
ABERDEEN       CLEAR     35  32  88 S10       29.77F WCI  27
WATERTOWN      CLEAR     32  30  92 S7        29.82F WCI  26
BROOKINGS      CLEAR     33  32  96 S9        29.85F WCI  25
SISSETON         N/A     36  31  82 S7        29.79F
$$

SDZ017-020-022-023-036>040-048>070-211000-
SOUTHEAST SOUTH DAKOTA

CITY           SKY/WX    TMP DP  RH WIND       PRES   REMARKS
SIOUX FALLS    CLEAR     30  30 100 CALM      29.89S FOG
HURON          CLEAR     35  33  92 S9        29.81F WCI  28
CHAMBERLAIN    CLOUDY    41  32  70 SW5       29.79F
MITCHELL       CLEAR     34  31  88 S9        29.85F WCI  27
YANKTON        CLEAR     36  32  87 S5        29.89F
$$

ABBREVIATIONS USED IN REMARKS
   TC - TEMPERATURE IN CELSIUS
  WCI - WIND CHILL INDEX
   HX - HEAT INDEX
  VSB - VISIBILITY





USA.gov is the U.S. government's official web portal to all federal, state and local government web resources and services.